Year,Month,Day,Hour,Minute,Value (Times are PST for temperature in C)
2009,06,02,00,00,21.30
2009,06,02,00,01,21.30
2009,06,02,00,02,21.30
2009,06,02,00,03,21.30
2009,06,02,00,04,21.30
2009,06,02,00,05,21.30
2009,06,02,00,06,21.30
2009,06,02,00,07,21.40
2009,06,02,00,08,21.40
2009,06,02,00,09,21.40
2009,06,02,00,10,21.40
2009,06,02,00,11,21.40
2009,06,02,00,12,21.40
2009,06,02,00,13,21.40
2009,06,02,00,14,21.60
2009,06,02,00,15,21.60
2009,06,02,00,16,21.60
2009,06,02,00,17,21.60
2009,06,02,00,18,21.50
2009,06,02,00,19,21.30
2009,06,02,00,20,21.30
2009,06,02,00,21,21.30
2009,06,02,00,22,21.30
2009,06,02,00,23,21.30
2009,06,02,00,24,21.20
2009,06,02,00,25,21.20
2009,06,02,00,26,21.20
2009,06,02,00,27,21.20
2009,06,02,00,28,21.10
2009,06,02,00,29,21.10
2009,06,02,00,30,21.00
2009,06,02,00,31,21.00
2009,06,02,00,32,20.80
2009,06,02,00,33,20.80
2009,06,02,00,34,20.70
2009,06,02,00,35,20.80
2009,06,02,00,36,20.80
2009,06,02,00,37,20.80
2009,06,02,00,38,20.80
2009,06,02,00,39,20.80
2009,06,02,00,40,20.80
2009,06,02,00,41,20.70
2009,06,02,00,42,20.70
2009,06,02,00,43,20.70
2009,06,02,00,44,20.70
2009,06,02,00,45,20.70
2009,06,02,00,46,20.70
2009,06,02,00,47,20.70
2009,06,02,00,48,20.70
2009,06,02,00,49,20.70
2009,06,02,00,50,20.70
2009,06,02,00,51,20.60
2009,06,02,00,52,20.60
2009,06,02,00,53,20.60
2009,06,02,00,54,20.60
2009,06,02,00,55,20.50
2009,06,02,00,56,20.50
2009,06,02,00,57,20.50
2009,06,02,00,58,20.40
2009,06,02,00,59,20.20
2009,06,02,01,00,20.00
2009,06,02,01,01,19.90
2009,06,02,01,02,19.80
2009,06,02,01,03,19.70
2009,06,02,01,04,19.60
2009,06,02,01,05,19.40
2009,06,02,01,06,19.30
2009,06,02,01,07,19.20
2009,06,02,01,08,19.00
2009,06,02,01,09,18.90
2009,06,02,01,10,18.80
2009,06,02,01,11,18.70
2009,06,02,01,12,18.60
2009,06,02,01,13,18.50
2009,06,02,01,14,18.50
2009,06,02,01,15,18.50
2009,06,02,01,16,18.50
2009,06,02,01,17,18.50
2009,06,02,01,18,18.50
2009,06,02,01,19,18.40
2009,06,02,01,20,18.40
2009,06,02,01,21,18.40
2009,06,02,01,22,18.40
2009,06,02,01,23,18.50
2009,06,02,01,24,18.50
2009,06,02,01,25,18.50
2009,06,02,01,26,18.50
2009,06,02,01,27,18.50
2009,06,02,01,28,18.50
2009,06,02,01,29,18.50
2009,06,02,01,30,18.50
2009,06,02,01,31,18.60
2009,06,02,01,32,18.60
2009,06,02,01,33,18.70
2009,06,02,01,34,18.70
2009,06,02,01,35,18.70
2009,06,02,01,36,18.80
2009,06,02,01,37,18.90
2009,06,02,01,38,18.90
2009,06,02,01,39,18.90
2009,06,02,01,40,18.90
2009,06,02,01,41,18.90
2009,06,02,01,42,19.10
2009,06,02,01,43,19.10
2009,06,02,01,44,19.10
2009,06,02,01,45,19.10
2009,06,02,01,46,19.10
2009,06,02,01,47,19.10
2009,06,02,01,48,19.10
2009,06,02,01,49,19.10
2009,06,02,01,50,19.10
2009,06,02,01,51,19.10
2009,06,02,01,52,18.90
2009,06,02,01,53,18.90
2009,06,02,01,54,18.90
2009,06,02,01,55,18.90
2009,06,02,01,56,18.90
2009,06,02,01,57,18.90
2009,06,02,01,58,18.80
2009,06,02,01,59,18.80
2009,06,02,02,00,18.70
2009,06,02,02,01,18.70
2009,06,02,02,02,18.60
2009,06,02,02,03,18.50
2009,06,02,02,04,18.50
2009,06,02,02,05,18.40
2009,06,02,02,06,18.20
2009,06,02,02,07,18.20
2009,06,02,02,08,18.10
2009,06,02,02,09,18.10
2009,06,02,02,10,18.10
2009,06,02,02,11,18.00
2009,06,02,02,12,17.90
2009,06,02,02,13,17.90
2009,06,02,02,14,17.90
2009,06,02,02,15,17.90
2009,06,02,02,16,17.90
2009,06,02,02,17,17.90
2009,06,02,02,18,17.90
2009,06,02,02,19,17.90
2009,06,02,02,20,17.90
2009,06,02,02,21,18.10
2009,06,02,02,22,18.10
2009,06,02,02,23,18.10
2009,06,02,02,24,18.10
2009,06,02,02,25,18.20
2009,06,02,02,26,18.20
2009,06,02,02,27,18.20
2009,06,02,02,28,18.20
2009,06,02,02,29,18.20
2009,06,02,02,30,18.20
2009,06,02,02,31,18.20
2009,06,02,02,32,18.20
2009,06,02,02,33,18.20
2009,06,02,02,34,18.20
2009,06,02,02,35,18.10
2009,06,02,02,36,18.10
2009,06,02,02,37,18.10
2009,06,02,02,38,18.10
2009,06,02,02,39,18.10
2009,06,02,02,40,18.10
2009,06,02,02,41,18.10
2009,06,02,02,42,18.10
2009,06,02,02,43,18.20
2009,06,02,02,44,18.20
2009,06,02,02,45,18.20
2009,06,02,02,46,18.20
2009,06,02,02,47,18.20
2009,06,02,02,48,18.20
2009,06,02,02,49,18.20
2009,06,02,02,50,18.20
2009,06,02,02,51,18.20
2009,06,02,02,52,18.20
2009,06,02,02,53,18.10
2009,06,02,02,54,18.10
2009,06,02,02,55,18.00
2009,06,02,02,56,17.90
2009,06,02,02,57,17.90
2009,06,02,02,58,17.90
2009,06,02,02,59,17.80
2009,06,02,03,00,17.80
2009,06,02,03,01,17.70
2009,06,02,03,02,17.70
2009,06,02,03,03,17.60
2009,06,02,03,04,17.60
2009,06,02,03,05,17.50
2009,06,02,03,06,17.50
2009,06,02,03,07,17.40
2009,06,02,03,08,17.30
2009,06,02,03,09,17.30
2009,06,02,03,10,17.30
2009,06,02,03,11,17.20
2009,06,02,03,12,17.00
2009,06,02,03,13,17.00
2009,06,02,03,14,16.90
2009,06,02,03,15,16.80
2009,06,02,03,16,16.80
2009,06,02,03,17,16.80
2009,06,02,03,18,16.90
2009,06,02,03,19,16.90
2009,06,02,03,20,16.90
2009,06,02,03,21,16.90
2009,06,02,03,22,16.80
2009,06,02,03,23,16.80
2009,06,02,03,24,16.80
2009,06,02,03,25,16.70
2009,06,02,03,26,16.70
2009,06,02,03,27,16.50
2009,06,02,03,28,16.40
2009,06,02,03,29,16.40
2009,06,02,03,30,16.30
2009,06,02,03,31,16.20
2009,06,02,03,32,16.10
2009,06,02,03,33,16.10
2009,06,02,03,34,16.10
2009,06,02,03,35,16.00
2009,06,02,03,36,15.90
2009,06,02,03,37,15.80
2009,06,02,03,38,15.80
2009,06,02,03,39,15.80
2009,06,02,03,40,15.80
2009,06,02,03,41,15.80
2009,06,02,03,42,15.70
2009,06,02,03,43,15.70
2009,06,02,03,44,15.70
2009,06,02,03,45,15.60
2009,06,02,03,46,15.60
2009,06,02,03,47,15.60
2009,06,02,03,48,15.60
2009,06,02,03,49,15.50
2009,06,02,03,50,15.50
2009,06,02,03,51,15.50
2009,06,02,03,52,15.50
2009,06,02,03,53,15.40
2009,06,02,03,54,15.20
2009,06,02,03,55,15.00
2009,06,02,03,56,14.80
2009,06,02,03,57,14.70
2009,06,02,03,58,14.50
2009,06,02,03,59,14.40
2009,06,02,04,00,14.30
2009,06,02,04,01,14.20
2009,06,02,04,02,14.10
2009,06,02,04,03,14.10
2009,06,02,04,04,14.00
2009,06,02,04,05,14.00
2009,06,02,04,06,14.00
2009,06,02,04,07,13.90
2009,06,02,04,08,13.90
2009,06,02,04,09,13.90
2009,06,02,04,10,13.90
2009,06,02,04,11,13.90
2009,06,02,04,12,13.90
2009,06,02,04,13,13.90
2009,06,02,04,14,13.90
2009,06,02,04,15,13.90
2009,06,02,04,16,13.90
2009,06,02,04,17,13.90
2009,06,02,04,18,13.90
2009,06,02,04,19,13.90
2009,06,02,04,20,14.00
2009,06,02,04,21,14.00
2009,06,02,04,22,14.00
2009,06,02,04,23,14.00
2009,06,02,04,24,14.10
2009,06,02,04,25,14.10
2009,06,02,04,26,14.10
2009,06,02,04,27,14.10
2009,06,02,04,28,14.10
2009,06,02,04,29,14.10
2009,06,02,04,30,14.10
2009,06,02,04,31,14.10
2009,06,02,04,32,14.10
2009,06,02,04,33,14.10
2009,06,02,04,34,14.10
2009,06,02,04,35,14.10
2009,06,02,04,36,14.10
2009,06,02,04,37,14.10
2009,06,02,04,38,14.10
2009,06,02,04,39,14.10
2009,06,02,04,40,14.10
2009,06,02,04,41,14.10
2009,06,02,04,42,14.10
2009,06,02,04,43,14.10
2009,06,02,04,44,14.10
2009,06,02,04,45,14.00
2009,06,02,04,46,14.00
2009,06,02,04,47,14.00
2009,06,02,04,48,13.90
2009,06,02,04,49,13.90
2009,06,02,04,50,13.90
2009,06,02,04,51,13.90
2009,06,02,04,52,13.90
2009,06,02,04,53,13.90
2009,06,02,04,54,13.90
2009,06,02,04,55,13.90
2009,06,02,04,56,13.90
2009,06,02,04,57,14.00
2009,06,02,04,58,14.00
2009,06,02,04,59,14.00
2009,06,02,05,00,14.10
2009,06,02,05,01,14.10
2009,06,02,05,02,14.20
2009,06,02,05,03,14.20
2009,06,02,05,04,14.20
2009,06,02,05,05,14.20
2009,06,02,05,06,14.20
2009,06,02,05,07,14.20
2009,06,02,05,08,14.20
2009,06,02,05,09,14.20
2009,06,02,05,10,14.20
2009,06,02,05,11,14.20
2009,06,02,05,12,14.20
2009,06,02,05,13,14.20
2009,06,02,05,14,14.30
2009,06,02,05,15,14.30
2009,06,02,05,16,14.20
2009,06,02,05,17,14.20
2009,06,02,05,18,14.20
2009,06,02,05,19,14.20
2009,06,02,05,20,14.20
2009,06,02,05,21,14.20
2009,06,02,05,22,14.30
2009,06,02,05,23,14.20
2009,06,02,05,24,14.20
2009,06,02,05,25,14.20
2009,06,02,05,26,14.30
2009,06,02,05,27,14.40
2009,06,02,05,28,14.50
2009,06,02,05,29,14.60
2009,06,02,05,30,14.70
2009,06,02,05,31,14.90
2009,06,02,05,32,15.00
2009,06,02,05,33,15.10
2009,06,02,05,34,15.10
2009,06,02,05,35,15.20
2009,06,02,05,36,15.30
2009,06,02,05,37,15.30
2009,06,02,05,38,15.30
2009,06,02,05,39,15.40
2009,06,02,05,40,15.50
2009,06,02,05,41,15.50
2009,06,02,05,42,15.50
2009,06,02,05,43,15.60
2009,06,02,05,44,15.60
2009,06,02,05,45,15.60
2009,06,02,05,46,15.60
2009,06,02,05,47,15.60
2009,06,02,05,48,15.60
2009,06,02,05,49,15.60
2009,06,02,05,50,15.60
2009,06,02,05,51,15.70
2009,06,02,05,52,15.70
2009,06,02,05,53,15.70
2009,06,02,05,54,15.70
2009,06,02,05,55,15.80
2009,06,02,05,56,15.80
2009,06,02,05,57,15.80
2009,06,02,05,58,15.80
2009,06,02,05,59,15.80
2009,06,02,06,00,15.80
2009,06,02,06,01,15.80
2009,06,02,06,02,15.80
2009,06,02,06,03,15.80
2009,06,02,06,04,15.80
2009,06,02,06,05,15.90
2009,06,02,06,06,15.90
2009,06,02,06,07,15.90
2009,06,02,06,08,15.90
2009,06,02,06,09,15.90
2009,06,02,06,10,15.90
2009,06,02,06,11,15.80
2009,06,02,06,12,15.80
2009,06,02,06,13,15.80
2009,06,02,06,14,15.90
2009,06,02,06,15,15.90
2009,06,02,06,16,15.90
2009,06,02,06,17,15.90
2009,06,02,06,18,15.90
2009,06,02,06,19,15.90
2009,06,02,06,20,15.90
2009,06,02,06,21,15.90
2009,06,02,06,22,15.90
2009,06,02,06,23,15.90
2009,06,02,06,24,16.00
2009,06,02,06,25,16.10
2009,06,02,06,26,16.10
2009,06,02,06,27,16.10
2009,06,02,06,28,16.10
2009,06,02,06,29,16.10
2009,06,02,06,30,16.10
2009,06,02,06,31,16.10
2009,06,02,06,32,16.10
2009,06,02,06,33,16.00
2009,06,02,06,34,16.00
2009,06,02,06,35,16.00
2009,06,02,06,36,15.90
2009,06,02,06,37,15.90
2009,06,02,06,38,15.90
2009,06,02,06,39,15.90
2009,06,02,06,40,15.90
2009,06,02,06,41,15.90
2009,06,02,06,42,15.80
2009,06,02,06,43,15.80
2009,06,02,06,44,15.80
2009,06,02,06,45,15.80
2009,06,02,06,46,15.80
2009,06,02,06,47,15.80
2009,06,02,06,48,15.80
2009,06,02,06,49,15.80
2009,06,02,06,50,15.80
2009,06,02,06,51,15.80
2009,06,02,06,52,15.80
2009,06,02,06,53,15.80
2009,06,02,06,54,15.80
2009,06,02,06,55,15.70
2009,06,02,06,56,15.70
2009,06,02,06,57,15.70
2009,06,02,06,58,15.60
2009,06,02,06,59,15.60
2009,06,02,07,00,15.50
2009,06,02,07,01,15.50
2009,06,02,07,02,15.50
2009,06,02,07,03,15.40
2009,06,02,07,04,15.40
2009,06,02,07,05,15.30
2009,06,02,07,06,15.30
2009,06,02,07,07,15.30
2009,06,02,07,08,15.20
2009,06,02,07,09,15.20
2009,06,02,07,10,15.10
2009,06,02,07,11,15.10
2009,06,02,07,12,15.10
2009,06,02,07,13,15.10
2009,06,02,07,14,15.00
2009,06,02,07,15,15.00
2009,06,02,07,16,15.00
2009,06,02,07,17,15.00
2009,06,02,07,18,15.00
2009,06,02,07,19,15.00
2009,06,02,07,20,15.00
2009,06,02,07,21,15.10
2009,06,02,07,22,15.10
2009,06,02,07,23,15.10
2009,06,02,07,24,15.20
2009,06,02,07,25,15.20
2009,06,02,07,26,15.20
2009,06,02,07,27,15.30
2009,06,02,07,28,15.30
2009,06,02,07,29,15.40
2009,06,02,07,30,15.50
2009,06,02,07,31,15.60
2009,06,02,07,32,15.60
2009,06,02,07,33,15.70
2009,06,02,07,34,15.80
2009,06,02,07,35,15.80
2009,06,02,07,36,15.90
2009,06,02,07,37,16.00
2009,06,02,07,38,16.10
2009,06,02,07,39,16.10
2009,06,02,07,40,16.10
2009,06,02,07,41,16.20
2009,06,02,07,42,16.20
2009,06,02,07,43,16.30
2009,06,02,07,44,16.30
2009,06,02,07,45,16.40
2009,06,02,07,46,16.40
2009,06,02,07,47,16.40
2009,06,02,07,48,16.40
2009,06,02,07,49,16.40
2009,06,02,07,50,16.40
2009,06,02,07,51,16.40
2009,06,02,07,52,16.40
2009,06,02,07,53,16.40
2009,06,02,07,54,16.60
2009,06,02,07,55,16.60
2009,06,02,07,56,16.60
2009,06,02,07,57,16.70
2009,06,02,07,58,16.70
2009,06,02,07,59,16.70
2009,06,02,08,00,16.70
2009,06,02,08,01,16.70
2009,06,02,08,02,16.70
2009,06,02,08,03,16.70
2009,06,02,08,04,16.70
2009,06,02,08,05,16.70
2009,06,02,08,06,16.70
2009,06,02,08,07,16.70
2009,06,02,08,08,16.70
2009,06,02,08,09,16.70
2009,06,02,08,10,16.70
2009,06,02,08,11,16.70
2009,06,02,08,12,16.80
2009,06,02,08,13,16.80
2009,06,02,08,14,16.80
2009,06,02,08,15,16.80
2009,06,02,08,16,16.90
2009,06,02,08,17,16.90
2009,06,02,08,18,17.00
2009,06,02,08,19,17.00
2009,06,02,08,20,17.10
2009,06,02,08,21,17.10
2009,06,02,08,22,17.10
2009,06,02,08,23,17.20
2009,06,02,08,24,17.10
2009,06,02,08,25,17.10
2009,06,02,08,26,17.10
2009,06,02,08,27,17.10
2009,06,02,08,28,17.10
2009,06,02,08,29,17.10
2009,06,02,08,30,17.10
2009,06,02,08,31,17.20
2009,06,02,08,32,17.20
2009,06,02,08,33,17.30
2009,06,02,08,34,17.20
2009,06,02,08,35,17.20
2009,06,02,08,36,17.20
2009,06,02,08,37,17.20
2009,06,02,08,38,17.20
2009,06,02,08,39,17.30
2009,06,02,08,40,17.20
2009,06,02,08,41,17.20
2009,06,02,08,42,17.20
2009,06,02,08,43,17.20
2009,06,02,08,44,17.20
2009,06,02,08,45,17.20
2009,06,02,08,46,17.20
2009,06,02,08,47,17.20
2009,06,02,08,48,17.10
2009,06,02,08,49,17.10
2009,06,02,08,50,17.10
2009,06,02,08,51,17.10
2009,06,02,08,52,17.20
2009,06,02,08,53,17.20
2009,06,02,08,54,17.20
2009,06,02,08,55,17.30
2009,06,02,08,56,17.30
2009,06,02,08,57,17.30
2009,06,02,08,58,17.30
2009,06,02,08,59,17.30
2009,06,02,09,00,17.40
2009,06,02,09,01,17.40
2009,06,02,09,02,17.40
2009,06,02,09,03,17.40
2009,06,02,09,04,17.40
2009,06,02,09,05,17.40
2009,06,02,09,06,17.40
2009,06,02,09,07,17.50
2009,06,02,09,08,17.50
2009,06,02,09,09,17.60
2009,06,02,09,10,17.70
2009,06,02,09,11,17.80
2009,06,02,09,12,17.80
2009,06,02,09,13,17.80
2009,06,02,09,14,17.90
2009,06,02,09,15,17.90
2009,06,02,09,16,18.10
2009,06,02,09,17,18.10
2009,06,02,09,18,18.20
2009,06,02,09,19,18.20
2009,06,02,09,20,18.20
2009,06,02,09,21,18.20
2009,06,02,09,22,18.20
2009,06,02,09,23,18.30
2009,06,02,09,24,18.30
2009,06,02,09,25,18.40
2009,06,02,09,26,18.50
2009,06,02,09,27,18.50
2009,06,02,09,28,18.50
2009,06,02,09,29,18.40
2009,06,02,09,30,18.40
2009,06,02,09,31,18.40
2009,06,02,09,32,18.30
2009,06,02,09,33,18.30
2009,06,02,09,34,18.40
2009,06,02,09,35,18.40
2009,06,02,09,36,18.40
2009,06,02,09,37,18.40
2009,06,02,09,38,18.50
2009,06,02,09,39,18.60
2009,06,02,09,40,18.60
2009,06,02,09,41,18.60
2009,06,02,09,42,18.70
2009,06,02,09,43,18.80
2009,06,02,09,44,18.90
2009,06,02,09,45,18.90
2009,06,02,09,46,19.10
2009,06,02,09,47,19.10
2009,06,02,09,48,19.10
2009,06,02,09,49,19.10
2009,06,02,09,50,19.10
2009,06,02,09,51,19.20
2009,06,02,09,52,19.20
2009,06,02,09,53,19.30
2009,06,02,09,54,19.30
2009,06,02,09,55,19.40
2009,06,02,09,56,19.50
2009,06,02,09,57,19.50
2009,06,02,09,58,19.50
2009,06,02,09,59,19.60
2009,06,02,10,00,19.60
2009,06,02,10,01,19.70
2009,06,02,10,02,19.70
2009,06,02,10,03,19.70
2009,06,02,10,04,19.80
2009,06,02,10,05,19.80
2009,06,02,10,06,19.90
2009,06,02,10,07,19.90
2009,06,02,10,08,19.90
2009,06,02,10,09,19.90
2009,06,02,10,10,19.90
2009,06,02,10,11,19.90
2009,06,02,10,12,20.00
2009,06,02,10,13,20.10
2009,06,02,10,14,20.10
2009,06,02,10,15,20.20
2009,06,02,10,16,20.20
2009,06,02,10,17,20.20
2009,06,02,10,18,20.20
2009,06,02,10,19,20.20
2009,06,02,10,20,20.20
2009,06,02,10,21,20.30
2009,06,02,10,22,20.40
2009,06,02,10,23,20.50
2009,06,02,10,24,20.50
2009,06,02,10,25,20.50
2009,06,02,10,26,20.50
2009,06,02,10,27,20.50
2009,06,02,10,28,20.40
2009,06,02,10,29,20.40
2009,06,02,10,30,20.50
2009,06,02,10,31,20.60
2009,06,02,10,32,20.70
2009,06,02,10,33,20.80
2009,06,02,10,34,20.90
2009,06,02,10,35,21.00
2009,06,02,10,36,21.10
2009,06,02,10,37,21.10
2009,06,02,10,38,21.10
2009,06,02,10,39,21.10
2009,06,02,10,40,21.10
2009,06,02,10,41,21.10
2009,06,02,10,42,21.00
2009,06,02,10,43,21.00
2009,06,02,10,44,20.90
2009,06,02,10,45,20.90
2009,06,02,10,46,20.90
2009,06,02,10,47,21.00
2009,06,02,10,48,21.10
2009,06,02,10,49,21.10
2009,06,02,10,50,21.00
2009,06,02,10,51,21.00
2009,06,02,10,52,21.00
2009,06,02,10,53,21.00
2009,06,02,10,54,21.10
2009,06,02,10,55,21.20
2009,06,02,10,56,21.30
2009,06,02,10,57,21.40
2009,06,02,10,58,21.40
2009,06,02,10,59,21.60
2009,06,02,11,00,21.40
2009,06,02,11,01,21.40
2009,06,02,11,02,21.50
2009,06,02,11,03,21.50
2009,06,02,11,04,21.40
2009,06,02,11,05,21.50
2009,06,02,11,06,21.60
2009,06,02,11,07,21.60
2009,06,02,11,08,21.70
2009,06,02,11,09,21.70
2009,06,02,11,10,21.80
2009,06,02,11,11,21.80
2009,06,02,11,12,21.80
2009,06,02,11,13,21.80
2009,06,02,11,14,21.80
2009,06,02,11,15,21.70
2009,06,02,11,16,21.70
2009,06,02,11,17,21.70
2009,06,02,11,18,21.70
2009,06,02,11,19,21.80
2009,06,02,11,20,21.70
2009,06,02,11,21,21.70
2009,06,02,11,22,21.70
2009,06,02,11,23,21.70
2009,06,02,11,24,21.70
2009,06,02,11,25,21.60
2009,06,02,11,26,21.60
2009,06,02,11,27,21.50
2009,06,02,11,28,21.40
2009,06,02,11,29,21.30
2009,06,02,11,30,21.30
2009,06,02,11,31,21.30
2009,06,02,11,32,21.30
2009,06,02,11,33,21.30
2009,06,02,11,34,21.30
2009,06,02,11,35,21.40
2009,06,02,11,36,21.50
2009,06,02,11,37,21.60
2009,06,02,11,38,21.60
2009,06,02,11,39,21.60
2009,06,02,11,40,21.60
2009,06,02,11,41,21.60
2009,06,02,11,42,21.60
2009,06,02,11,43,21.60
2009,06,02,11,44,21.60
2009,06,02,11,45,21.60
2009,06,02,11,46,21.60
2009,06,02,11,47,21.70
2009,06,02,11,48,21.70
2009,06,02,11,49,21.80
2009,06,02,11,50,21.90
2009,06,02,11,51,21.90
2009,06,02,11,52,21.90
2009,06,02,11,53,21.90
2009,06,02,11,54,22.00
2009,06,02,11,55,22.00
2009,06,02,11,56,22.10
2009,06,02,11,57,22.10
2009,06,02,11,58,22.20
2009,06,02,11,59,22.20
2009,06,02,12,00,22.10
2009,06,02,12,01,22.10
2009,06,02,12,02,22.10
2009,06,02,12,03,22.10
2009,06,02,12,04,22.20
2009,06,02,12,05,22.20
2009,06,02,12,06,22.20
2009,06,02,12,07,22.40
2009,06,02,12,08,22.50
2009,06,02,12,09,22.60
2009,06,02,12,10,22.70
2009,06,02,12,11,22.70
2009,06,02,12,12,22.70
2009,06,02,12,13,22.80
2009,06,02,12,14,22.80
2009,06,02,12,15,22.90
2009,06,02,12,16,22.80
2009,06,02,12,17,22.80
2009,06,02,12,18,22.80
2009,06,02,12,19,22.90
2009,06,02,12,20,22.90
2009,06,02,12,21,23.10
2009,06,02,12,22,23.30
2009,06,02,12,23,23.40
2009,06,02,12,24,23.50
2009,06,02,12,25,23.60
2009,06,02,12,26,23.70
2009,06,02,12,27,23.70
2009,06,02,12,28,23.80
2009,06,02,12,29,23.90
2009,06,02,12,30,23.90
2009,06,02,12,31,24.10
2009,06,02,12,32,24.10
2009,06,02,12,33,24.10
2009,06,02,12,34,24.20
2009,06,02,12,35,24.10
2009,06,02,12,36,24.00
2009,06,02,12,37,23.80
2009,06,02,12,38,23.70
2009,06,02,12,39,23.50
2009,06,02,12,40,23.30
2009,06,02,12,41,23.10
2009,06,02,12,42,23.00
2009,06,02,12,43,22.90
2009,06,02,12,44,22.90
2009,06,02,12,45,22.90
2009,06,02,12,46,22.90
2009,06,02,12,47,22.90
2009,06,02,12,48,22.90
2009,06,02,12,49,23.10
2009,06,02,12,50,23.30
2009,06,02,12,51,23.40
2009,06,02,12,52,23.70
2009,06,02,12,53,23.80
2009,06,02,12,54,24.00
2009,06,02,12,55,24.10
2009,06,02,12,56,24.20
2009,06,02,12,57,24.10
2009,06,02,12,58,24.10
2009,06,02,12,59,24.10
2009,06,02,13,00,24.00
2009,06,02,13,01,23.80
2009,06,02,13,02,23.70
2009,06,02,13,03,23.70
2009,06,02,13,04,23.70
2009,06,02,13,05,23.70
2009,06,02,13,06,23.70
2009,06,02,13,07,23.70
2009,06,02,13,08,23.80
2009,06,02,13,09,23.90
2009,06,02,13,10,24.00
2009,06,02,13,11,24.10
2009,06,02,13,12,24.30
2009,06,02,13,13,24.40
2009,06,02,13,14,24.40
2009,06,02,13,15,24.50
2009,06,02,13,16,24.60
2009,06,02,13,17,24.60
2009,06,02,13,18,24.70
2009,06,02,13,19,24.80
2009,06,02,13,20,24.80
2009,06,02,13,21,24.80
2009,06,02,13,22,24.80
2009,06,02,13,23,24.80
2009,06,02,13,24,24.80
2009,06,02,13,25,24.90
2009,06,02,13,26,24.90
2009,06,02,13,27,24.90
2009,06,02,13,28,24.90
2009,06,02,13,29,24.90
2009,06,02,13,30,24.80
2009,06,02,13,31,24.80
2009,06,02,13,32,24.80
2009,06,02,13,33,24.80
2009,06,02,13,34,24.90
2009,06,02,13,35,24.90
2009,06,02,13,36,25.10
2009,06,02,13,37,25.10
2009,06,02,13,38,25.00
2009,06,02,13,39,25.00
2009,06,02,13,40,25.00
2009,06,02,13,41,25.00
2009,06,02,13,42,25.00
2009,06,02,13,43,25.10
2009,06,02,13,44,25.00
2009,06,02,13,45,25.00
2009,06,02,13,46,25.00
2009,06,02,13,47,25.00
2009,06,02,13,48,24.90
2009,06,02,13,49,24.80
2009,06,02,13,50,24.70
2009,06,02,13,51,24.70
2009,06,02,13,52,24.70
2009,06,02,13,53,24.70
2009,06,02,13,54,24.60
2009,06,02,13,55,24.50
2009,06,02,13,56,24.50
2009,06,02,13,57,24.50
2009,06,02,13,58,24.50
2009,06,02,13,59,24.50
2009,06,02,14,00,24.50
2009,06,02,14,01,24.60
2009,06,02,14,02,24.70
2009,06,02,14,03,24.70
2009,06,02,14,04,24.80
2009,06,02,14,05,24.90
2009,06,02,14,06,24.90
2009,06,02,14,07,25.00
2009,06,02,14,08,25.10
2009,06,02,14,09,25.20
2009,06,02,14,10,25.30
2009,06,02,14,11,25.40
2009,06,02,14,12,25.60
2009,06,02,14,13,25.60
2009,06,02,14,14,25.70
2009,06,02,14,15,25.80
2009,06,02,14,16,25.80
2009,06,02,14,17,25.90
2009,06,02,14,18,25.90
2009,06,02,14,19,26.10
2009,06,02,14,20,26.10
2009,06,02,14,21,26.10
2009,06,02,14,22,26.10
2009,06,02,14,23,26.20
2009,06,02,14,24,26.20
2009,06,02,14,25,26.10
2009,06,02,14,26,26.10
2009,06,02,14,27,26.20
2009,06,02,14,28,26.20
2009,06,02,14,29,26.30
2009,06,02,14,30,26.40
2009,06,02,14,31,26.40
2009,06,02,14,32,26.30
2009,06,02,14,33,26.20
2009,06,02,14,34,26.10
2009,06,02,14,35,26.00
2009,06,02,14,36,26.00
2009,06,02,14,37,25.90
2009,06,02,14,38,25.80
2009,06,02,14,39,25.90
2009,06,02,14,40,25.90
2009,06,02,14,41,26.20
2009,06,02,14,42,26.30
2009,06,02,14,43,26.30
2009,06,02,14,44,26.30
2009,06,02,14,45,26.30
2009,06,02,14,46,26.40
2009,06,02,14,47,26.30
2009,06,02,14,48,26.20
2009,06,02,14,49,26.00
2009,06,02,14,50,25.90
2009,06,02,14,51,25.90
2009,06,02,14,52,25.90
2009,06,02,14,53,25.90
2009,06,02,14,54,25.90
2009,06,02,14,55,25.80
2009,06,02,14,56,25.70
2009,06,02,14,57,25.70
2009,06,02,14,58,25.60
2009,06,02,14,59,25.70
2009,06,02,15,00,25.70
2009,06,02,15,01,25.70
2009,06,02,15,02,25.70
2009,06,02,15,03,25.80
2009,06,02,15,04,25.90
2009,06,02,15,05,26.10
2009,06,02,15,06,26.20
2009,06,02,15,07,26.30
2009,06,02,15,08,26.30
2009,06,02,15,09,26.30
2009,06,02,15,10,26.30
2009,06,02,15,11,26.20
2009,06,02,15,12,26.30
2009,06,02,15,13,26.40
2009,06,02,15,14,26.50
2009,06,02,15,15,26.60
2009,06,02,15,16,26.60
2009,06,02,15,17,26.70
2009,06,02,15,18,26.80
2009,06,02,15,19,26.80
2009,06,02,15,20,26.80
2009,06,02,15,21,26.80
2009,06,02,15,22,26.80
2009,06,02,15,23,26.70
2009,06,02,15,24,26.60
2009,06,02,15,25,26.60
2009,06,02,15,26,26.60
2009,06,02,15,27,26.60
2009,06,02,15,28,26.60
2009,06,02,15,29,26.60
2009,06,02,15,30,26.70
2009,06,02,15,31,26.70
2009,06,02,15,32,26.80
2009,06,02,15,33,27.00
2009,06,02,15,34,27.10
2009,06,02,15,35,27.20
2009,06,02,15,36,27.20
2009,06,02,15,37,27.20
2009,06,02,15,38,27.20
2009,06,02,15,39,27.20
2009,06,02,15,40,27.20
2009,06,02,15,41,27.20
2009,06,02,15,42,27.20
2009,06,02,15,43,27.20
2009,06,02,15,44,27.20
2009,06,02,15,45,27.30
2009,06,02,15,46,27.30
2009,06,02,15,47,27.30
2009,06,02,15,48,27.30
2009,06,02,15,49,27.30
2009,06,02,15,50,27.30
2009,06,02,15,51,27.40
2009,06,02,15,52,27.50
2009,06,02,15,53,27.60
2009,06,02,15,54,27.60
2009,06,02,15,55,27.60
2009,06,02,15,56,27.40
2009,06,02,15,57,27.40
2009,06,02,15,58,27.50
2009,06,02,15,59,27.60
2009,06,02,16,00,27.60
2009,06,02,16,01,27.60
2009,06,02,16,02,27.70
2009,06,02,16,03,27.70
2009,06,02,16,04,27.70
2009,06,02,16,05,27.70
2009,06,02,16,06,27.60
2009,06,02,16,07,27.60
2009,06,02,16,08,27.60
2009,06,02,16,09,27.40
2009,06,02,16,10,27.30
2009,06,02,16,11,27.30
2009,06,02,16,12,27.20
2009,06,02,16,13,27.20
2009,06,02,16,14,27.30
2009,06,02,16,15,27.30
2009,06,02,16,16,27.30
2009,06,02,16,17,27.40
2009,06,02,16,18,27.50
2009,06,02,16,19,27.60
2009,06,02,16,20,27.70
2009,06,02,16,21,27.80
2009,06,02,16,22,27.90
2009,06,02,16,23,27.90
2009,06,02,16,24,28.00
2009,06,02,16,25,28.10
2009,06,02,16,26,28.10
2009,06,02,16,27,28.10
2009,06,02,16,28,28.10
2009,06,02,16,29,28.10
2009,06,02,16,30,28.10
2009,06,02,16,31,28.10
2009,06,02,16,32,28.10
2009,06,02,16,33,28.10
2009,06,02,16,34,28.10
2009,06,02,16,35,28.10
2009,06,02,16,36,28.20
2009,06,02,16,37,28.20
2009,06,02,16,38,28.30
2009,06,02,16,39,28.30
2009,06,02,16,40,28.20
2009,06,02,16,41,28.30
2009,06,02,16,42,28.30
2009,06,02,16,43,28.30
2009,06,02,16,44,28.30
2009,06,02,16,45,28.30
2009,06,02,16,46,28.30
2009,06,02,16,47,28.30
2009,06,02,16,48,28.30
2009,06,02,16,49,28.30
2009,06,02,16,50,28.30
2009,06,02,16,51,28.30
2009,06,02,16,52,28.30
2009,06,02,16,53,28.30
2009,06,02,16,54,28.30
2009,06,02,16,55,28.30
2009,06,02,16,56,28.40
2009,06,02,16,57,28.50
2009,06,02,16,58,28.60
2009,06,02,16,59,28.70
2009,06,02,17,00,28.90
2009,06,02,17,01,28.90
2009,06,02,17,02,29.00
2009,06,02,17,03,29.10
2009,06,02,17,04,29.20
2009,06,02,17,05,29.20
2009,06,02,17,06,29.20
2009,06,02,17,07,29.20
2009,06,02,17,08,29.20
2009,06,02,17,09,29.10
2009,06,02,17,10,29.00
2009,06,02,17,11,28.90
2009,06,02,17,12,28.90
2009,06,02,17,13,28.90
2009,06,02,17,14,28.90
2009,06,02,17,15,28.80
2009,06,02,17,16,28.60
2009,06,02,17,17,28.50
2009,06,02,17,18,28.40
2009,06,02,17,19,28.30